Location: Poughquag
(41.6090°N, 73.6820°W)
Time: 05:06:19
(UTC-05:00)

Vanguard 2 Rocket - All Passes

Search period start: 05 December 2023 00:00
Search period end: 15 December 2023 00:00
Orbit: 552 x 3312 km, 32.9° (Epoch: 04 December)

Date Brightness Start Highest point End Pass type
(mag) Time Alt. Az. Time Alt. Az. Time Alt. Az.
05 Dec - 12:26:10 10° SSW 12:39:30 35° SE 12:56:12 10° E daylight
05 Dec - 14:37:56 10° SW 14:55:23 59° SSE 15:14:23 10° E daylight
05 Dec - 16:53:22 10° W 17:13:04 65° S 17:29:58 10° ESE visible
05 Dec - 19:11:15 10° W 19:29:37 47° SSW 19:42:53 10° SE visible
05 Dec - 21:32:40 10° W 21:43:04 19° SW 21:51:08 10° S visible
06 Dec - 11:26:13 10° S 11:36:57 25° SE 11:50:36 10° E daylight
06 Dec - 13:35:56 10° SW 13:51:34 52° SSE 14:10:34 10° E daylight
06 Dec - 15:50:01 10° WSW 16:08:50 66° S 16:27:16 10° ESE daylight
06 Dec - 18:06:49 10° W 18:26:14 56° SSW 18:41:28 10° SE visible
06 Dec - 20:26:17 10° W 20:41:04 30° SW 20:52:01 10° SSE visible
07 Dec - 10:28:05 10° SSE 10:34:57 15° SE 10:43:09 10° E daylight
07 Dec - 12:34:37 10° SSW 12:48:14 42° SSE 13:06:08 10° E daylight
07 Dec - 14:47:14 10° WSW 15:04:37 63° S 15:23:59 10° E daylight
07 Dec - 17:02:54 10° W 17:22:21 62° SSW 17:39:25 10° ESE visible
07 Dec - 19:21:00 10° W 19:38:29 40° SW 19:51:42 10° SSE visible
07 Dec - 21:45:17 10° WSW 21:51:30 13° SW 21:56:55 10° SSW visible
08 Dec - 11:34:05 10° SSW 11:45:30 32° SE 12:01:02 10° E daylight
08 Dec - 13:45:04 10° SW 14:00:38 58° SSE 14:20:10 10° E daylight
08 Dec - 15:59:32 10° W 16:18:10 65° S 16:36:46 10° ESE daylight
08 Dec - 18:16:27 10° W 18:35:16 50° SSW 18:50:32 10° SE visible
08 Dec - 20:36:57 10° W 20:49:36 23° SW 20:59:40 10° S visible
09 Dec - 10:34:37 10° S 10:43:24 22° SE 10:54:58 10° E daylight
09 Dec - 12:43:31 10° SW 12:57:09 50° SSE 13:15:50 10° E daylight
09 Dec - 14:56:42 10° WSW 15:13:55 65° S 15:33:31 10° E daylight
09 Dec - 17:12:30 10° W 17:31:33 57° SSW 17:48:40 10° SE visible
09 Dec - 19:31:02 10° W 19:47:10 32° SW 20:00:01 10° SSE visible
10 Dec - 09:37:47 10° SE 09:41:48 12° SE 09:46:24 10° ESE daylight
10 Dec - 11:42:37 10° SSW 11:54:15 40° SE 12:10:59 10° E daylight
10 Dec - 13:54:26 10° WSW 14:09:52 62° SSE 14:29:41 10° E daylight
10 Dec - 16:09:08 10° W 16:27:27 63° S 16:46:08 10° ESE daylight
10 Dec - 18:26:14 10° W 18:44:09 42° SSW 18:59:15 10° SSE visible
10 Dec - 20:48:53 10° W 20:58:01 16° SW 21:05:55 10° SSW visible
11 Dec - 10:42:29 10° SSW 10:51:59 29° SE 11:05:32 10° E daylight
11 Dec - 12:52:43 10° SW 13:06:14 56° SSE 13:25:23 10° E daylight
11 Dec - 15:06:18 10° W 15:23:15 65° S 15:42:56 10° ESE daylight
11 Dec - 17:22:12 10° W 17:40:36 51° SSW 17:57:38 10° SE visible
11 Dec - 19:41:36 10° W 19:55:42 25° SW 20:07:37 10° S visible
12 Dec - 09:43:34 10° SSE 09:50:18 18° SE 09:59:08 10° E daylight
12 Dec - 11:51:34 10° SW 12:03:10 47° SSE 12:20:39 10° E daylight
12 Dec - 14:03:59 10° WSW 14:19:11 64° S 14:39:08 10° E daylight
12 Dec - 16:18:48 10° W 16:36:40 58° SSW 16:55:16 10° SE visible
12 Dec - 18:36:17 10° W 18:52:52 34° SW 19:07:27 10° SSE visible
13 Dec - 10:51:02 10° SSW 11:00:45 36° SE 11:15:32 10° E daylight
13 Dec - 13:02:10 10° WSW 13:15:29 60° SSE 13:34:51 10° E daylight
13 Dec - 15:15:58 10° W 15:32:34 62° S 15:52:12 10° ESE daylight
13 Dec - 17:32:02 10° W 17:49:31 43° SSW 18:06:13 10° SSE visible
13 Dec - 19:53:16 10° W 20:04:10 18° SW 20:13:58 10° SSW visible
14 Dec - 09:51:18 10° S 09:58:55 25° SE 10:09:57 10° E daylight
14 Dec - 12:00:50 10° SW 12:12:18 53° SSE 12:30:10 10° E daylight
14 Dec - 14:13:38 10° WSW 14:28:33 64° S 14:48:28 10° ESE daylight
14 Dec - 16:28:33 10° W 16:45:46 51° SSW 17:04:07 10° SE visible
14 Dec - 18:46:49 10° W 19:01:29 27° SW 19:14:56 10° S visible
